This is the latest recevied weather packets stored in our database for station/object IU5JAE-13. If no packets are shown the sender has not sent any weather packets the latest 1 day(s).
| Time | Temp. | Humidity | Pressure | Rain* | Wind** | Luminosity | Snow |
|---|---|---|---|---|---|---|---|
| 1777974333 | 12.22° C | 99% | 1012.9 hPa | 9.65 mm | 0.45 m/s, 171° | 13 W/m² | - |
| 1777973731 | 12.22° C | 99% | 1012.8 hPa | 12.95 mm | 0.45 m/s, 174° | 16 W/m² | - |
| 1777973128 | 12.22° C | 99% | 1012.9 hPa | 14.73 mm | 0.45 m/s, 143° | 16 W/m² | - |
| 1777972526 | 12.22° C | 99% | 1012.6 hPa | 13.72 mm | 1.34 m/s, 191° | 56 W/m² | - |
| 1777971923 | 12.22° C | 99% | 1012.4 hPa | 12.19 mm | 1.34 m/s, 227° | 27 W/m² | - |
| 1777971321 | 12.22° C | 99% | 1012.5 hPa | 9.4 mm | 0.89 m/s, 225° | 19 W/m² | - |
| 1777970719 | 12.22° C | 99% | 1012.4 hPa | 8.64 mm | 1.34 m/s, 174° | 30 W/m² | - |
| 1777970116 | 11.67° C | 99% | 1012.5 hPa | 6.86 mm | 0.45 m/s, 118° | 14 W/m² | - |
| 1777969534 | 12.22° C | 99% | 1012.3 hPa | 6.6 mm | 0.89 m/s, 164° | 21 W/m² | - |
| 1777968931 | 12.22° C | 99% | 1012.2 hPa | 13.21 mm | 0.89 m/s, 240° | 28 W/m² | - |
| 1777968329 | 12.22° C | 98% | 1012.2 hPa | 14.73 mm | 0.89 m/s, 96° | 37 W/m² | - |
| 1777967727 | 12.22° C | 98% | 1012.2 hPa | 13.97 mm | 0.45 m/s, 79° | 16 W/m² | - |
| 1777967124 | 11.67° C | 98% | 1012.2 hPa | 14.22 mm | 0.45 m/s, 144° | 39 W/m² | - |
| 1777966522 | 11.67° C | 98% | 1012.7 hPa | 12.45 mm | 1.34 m/s, 176° | 18 W/m² | - |
| 1777965919 | 11.67° C | 98% | 1012.2 hPa | 10.92 mm | 1.79 m/s, 178° | 22 W/m² | - |
| 1777965317 | 11.67° C | 98% | 1012.2 hPa | 3.81 mm | 0.89 m/s, 234° | 8 W/m² | - |
| 1777964735 | 11.67° C | 98% | 1011.9 hPa | 0.51 mm | 0.89 m/s, 186° | 17 W/m² | - |
| 1777964132 | 11.67° C | 98% | 1012 hPa | 0.76 mm | 0.89 m/s, 213° | 16 W/m² | - |
| 1777963530 | 11.11° C | 98% | 1012 hPa | 1.27 mm | 0 m/s | 16 W/m² | - |
| 1777962927 | 11.11° C | 98% | 1012.5 hPa | 1.78 mm | 0.45 m/s, 90° | 16 W/m² | - |
| 1777962325 | 11.11° C | 98% | 1012.6 hPa | 2.03 mm | 0.89 m/s, 77° | 21 W/m² | - |
| 1777961723 | 11.11° C | 98% | 1012.8 hPa | 3.3 mm | 0 m/s | 15 W/m² | - |
| 1777961120 | 11.11° C | 98% | 1012.6 hPa | 5.33 mm | 0.89 m/s, 76° | 18 W/m² | - |
| 1777960518 | 11.11° C | 98% | 1012.6 hPa | 9.4 mm | 0.45 m/s, 76° | 7 W/m² | - |
| 1777959917 | 11.11° C | 98% | 1012.6 hPa | 12.45 mm | 0.45 m/s, 43° | 5 W/m² | - |
* Rain latest hour (hover to see other rain measurements)
** Current wind speed in m/s (hover to see current wind gust speed)